This is the latest recevied weather packets stored in our database for station/object OE-11152. If no packets are shown the sender has not sent any weather packets the latest 10 day(s).
| Time | Temp. | Humidity | Pressure | Rain* | Wind** | Luminosity | Snow |
|---|---|---|---|---|---|---|---|
| 1787883091 | 18.33° C | 86% | 1011.6 hPa | 0 mm | - | 0 W/m² | - |
| 1787882718 | 18.33° C | 86% | 1011.6 hPa | 0 mm | - | 0 W/m² | - |
| 1787882115 | 18.33° C | 85% | 1011.5 hPa | 0 mm | - | 0 W/m² | - |
| 1787881291 | 18.33° C | 86% | 1011.4 hPa | 0 mm | - | 0 W/m² | - |
| 1787880918 | 18.89° C | 85% | 1011.3 hPa | 0 mm | - | 0 W/m² | - |
| 1787880318 | 18.89° C | 83% | 1011.4 hPa | 0 mm | - | 0 W/m² | - |
| 1787879490 | 18.89° C | 84% | 1011.5 hPa | 0 mm | - | 0 W/m² | - |
| 1787879117 | 18.89° C | 83% | 1011.5 hPa | 0 mm | - | 0 W/m² | - |
| 1787878518 | 19.44° C | 82% | 1011.4 hPa | 0 mm | - | 0 W/m² | - |
| 1787877690 | 19.44° C | 85% | 1011.3 hPa | 0 mm | - | 0 W/m² | - |
| 1787877318 | 19.44° C | 85% | 1011.4 hPa | 0 mm | - | 0 W/m² | - |
| 1787876718 | 19.44° C | 85% | 1011.4 hPa | 0 mm | - | 0 W/m² | - |
| 1787875890 | 19.44° C | 84% | 1011.4 hPa | 0 mm | - | 0 W/m² | - |
| 1787875517 | 19.44° C | 87% | 1011.4 hPa | 0 mm | - | 0 W/m² | - |
| 1787874918 | 20° C | 85% | 1011.4 hPa | 0 mm | - | 0 W/m² | - |
| 1787874090 | 20° C | 85% | 1011.5 hPa | 0 mm | - | 0 W/m² | - |
| 1787873718 | 20° C | 84% | 1011.6 hPa | 0 mm | - | 0 W/m² | - |
| 1787873117 | 20° C | 80% | 1011.6 hPa | 0 mm | - | 0 W/m² | - |
| 1787872518 | 20° C | 82% | 1011.7 hPa | 0 mm | - | 0 W/m² | - |
| 1787871917 | 20° C | 81% | 1011.9 hPa | 0 mm | - | 0 W/m² | - |
| 1787870491 | 20.56° C | 81% | 1012.2 hPa | 0 mm | - | 0 W/m² | - |
| 1787870118 | 20.56° C | 80% | 1012.2 hPa | 0 mm | - | 0 W/m² | - |
| 1787869518 | 20.56° C | 78% | 1012.3 hPa | 0 mm | - | 0 W/m² | - |
| 1787868691 | 21.11° C | 77% | 1012.3 hPa | 0 mm | - | 0 W/m² | - |
| 1787868317 | 20.56° C | 77% | 1012.3 hPa | 0 mm | - | 0 W/m² | - |
* Rain latest hour (hover to see other rain measurements)
** Current wind speed in m/s (hover to see current wind gust speed)